Wetbulb
49.20 42.05 38.45 41.48 42.91 40.24 39.15 36.64 35.22 38.48 41.76 39.76 39.65 40.60 44.02 45.14 44.52 45.01 45.83 46.06 46.45 47.29 50.10 49.42 49.97 50.54 50.34 50.54 50.59 51.11 51.61 52.56 53.34 53.23 53.09 52.81 53.40 53.81 55.34 57.64 59.41 60.85 61.84 62.61
44.83 38.49 41.25 44.15 44.60 42.34 38.86 36.61 35.55 39.21 40.71 39.37 38.45 38.28 41.03 42.44 42.93 44.02 44.74 45.30 46.01 46.96 48.73 49.93 49.05 49.28 48.69 49.34 49.47 49.88 50.73 50.99 51.36 51.61 52.27 53.13 53.42 54.06 54.73 56.00 57.65 59.91 60.25 60.46
37.75 39.24 43.51 42.75 41.70 40.37 38.84 37.09 35.68 36.26 39.28 38.53 35.66 35.30 36.90 41.52 42.44 43.38 44.31 46.13 46.88 47.75 48.67 49.24 48.19 48.41 47.82 47.65 48.23 49.17 49.55 49.42 49.49 49.37 50.07 51.87 53.17 53.97 54.83 56.43 57.27 55.76 56.10 57.60
39.35 42.07 41.83 39.86 38.54 40.45 35.57 40.36 39.34 38.11 36.42 31.56 34.41 26.61 34.08 36.82 38.06 39.96 42.18 43.96 45.29 45.94 46.68 46.98 47.24 47.28 47.11 47.74 47.61 48.30 47.60 47.26 47.16 46.93 48.66 50.92 52.51 52.72 54.73 54.98 53.10 51.67 51.59 52.73
35.91 38.86 39.20 39.06 38.84 42.09 37.11 41.02 39.64 37.89 35.28 34.10 32.56 30.13 31.66 33.64 34.40 37.61 39.97 40.78 41.93 42.75 43.68 44.62 45.36 45.80 46.51 46.23 46.45 45.97 45.03 43.89 43.34 44.11 45.94 48.66 50.33 52.21 54.08 52.10 51.07 49.28 49.26 48.28
36.01 39.24 40.31 39.96 41.78 43.15 41.54 38.21 37.08 35.01 33.09 24.57 30.68 29.30 25.95 30.96 34.79 36.91 38.85 40.36 41.41 41.75 41.62 41.98 42.83 43.18 43.48 43.48 43.50 42.70 42.33 41.80 41.18 41.63 42.75 45.64 49.12 50.90 51.19 50.48 50.27 49.27 47.36 46.26
36.81 36.50 38.20 40.28 38.12 40.56 39.07 34.48 27.85 25.92 24.08 21.97 27.79 28.21 29.12 34.73 37.17 37.86 38.53 39.90 40.66 40.06 40.38 40.95 41.17 41.42 41.66 41.24 40.68 40.68 40.61 40.56 39.64 39.78 40.42 41.71 43.95 47.04 49.76 50.86 49.63 47.48 46.20 44.23
30.07 24.75 36.50 39.32 38.17 36.93 36.81 34.55 28.20 21.10 21.11 22.75 29.46 25.79 30.62 36.73 39.12 38.55 38.42 38.28 39.31 40.44 40.55 40.99 41.09 40.63 40.37 40.28 39.52 39.34 39.21 39.34 38.29 38.01 38.64 38.60 39.11 40.95 43.04 44.20 45.39 46.12 45.86 44.31
28.98 28.80 36.76 37.98 38.95 40.23 36.35 33.91 35.49 28.13 21.48 21.95 25.48 28.38 33.07 35.04 36.49 37.27 36.92 37.23 38.34 39.98 40.30 40.79 40.81 40.24 39.83 39.37 39.34 38.83 38.30 38.13 37.64 36.77 36.37 36.30 36.77 37.40 38.75 39.29 39.16 40.28 40.58 39.81
33.72 25.78 34.03 36.99 39.24 38.51 37.40 38.72 30.99 28.03 18.65 17.04 23.17 24.58 28.26 31.93 34.08 35.06 35.14 36.70 38.29 38.36 38.92 39.80 40.15 39.93 39.57 39.21 38.95 38.21 37.31 37.05 37.48 36.05 34.96 35.13 34.93 34.98 35.46 35.73 36.18 36.56 36.91 36.34
36.95 32.86 30.65 35.94 34.56 33.73 34.53 33.49 34.41 32.95 27.10 21.51 18.38 24.17 31.46 33.77 34.96 35.43 35.14 37.15 37.40 37.95 38.78 39.39 40.05 39.66 39.51 38.87 38.03 37.40 36.65 36.18 35.98 35.17 34.18 33.49 33.42 33.27 33.19 33.20 33.97 34.19 34.34 34.29
37.53 35.62 28.34 30.24 34.83 36.73 36.49 34.14 34.98 25.94 23.33 24.33 24.92 28.14 35.07 34.99 35.82 35.45 35.68 38.57 37.59 38.26 39.59 39.78 39.95 39.46 38.90 38.36 37.71 36.89 36.40 35.59 35.30 35.10 33.50 32.31 32.14 31.49 31.07 31.32 31.79 32.20 32.28 32.82
38.66 34.04 27.04 27.63 30.84 34.29 32.54 34.40 35.38 33.12 28.89 26.88 23.56 27.12 35.41 33.92 34.82 35.86 36.59 37.76 38.30 39.03 39.84 39.82 39.02 39.09 39.07 38.32 37.31 36.76 36.22 36.06 35.27 33.82 32.48 31.33 31.10 30.09 29.99 30.31 30.53 30.65 30.98 31.43
38.73 35.09 29.49 22.44 25.82 30.88 30.51 32.63 35.42 33.79 25.25 27.76 29.31 31.40 35.07 34.14 35.17 35.32 36.87 37.47 37.59 37.77 38.59 38.97 39.03 39.59 38.74 38.55 38.13 37.13 36.30 35.13 34.83 32.81 31.94 31.57 31.31 30.38 29.81 29.79 29.44 29.49 29.91 30.18
35.44 30.30 32.86 33.96 32.38 31.15 31.06 31.81 33.28 32.36 33.45 29.07 31.46 29.68 35.71 37.99 37.03 38.45 38.40 38.33 37.80 38.71 39.25 39.07 38.79 39.22 39.39 38.86 37.81 35.69 34.84 34.55 33.26 31.96 31.41 31.62 31.81 29.70 28.79 28.46 28.41 28.66 28.79 29.36
35.42 29.92 31.05 28.12 33.77 33.29 31.08 32.54 31.35 31.95 33.16 33.39 33.74 32.83 40.26 41.50 39.71 36.92 38.19 37.98 37.35 37.73 38.41 38.80 38.57 38.44 38.03 37.82 37.56 37.05 36.17 34.37 31.91 30.64 31.17 31.72 29.79 29.07 28.49 28.23 27.64 27.49 27.76 28.21
29.48 25.28 18.72 15.64 27.94 28.81 20.75 29.89 32.56 33.63 33.62 34.07 30.50 35.61 39.75 38.18 38.18 37.08 37.55 37.58 37.49 37.83 38.00 37.80 37.81 37.68 37.61 36.98 36.43 34.89 35.30 34.59 31.22 30.25 30.55 29.58 28.48 27.72 27.65 27.14 26.26 26.36 26.28 26.96
28.93 26.19 20.90 11.46 13.69 9.01 26.12 31.96 34.04 33.08 34.93 36.33 36.68 37.96 39.00 39.06 37.75 38.09 37.89 37.17 36.76 36.54 36.86 36.73 36.10 35.48 34.64 33.30 31.93 31.54 31.39 32.07 31.09 30.01 29.11 28.32 27.34 26.88 25.96 25.12 25.20 25.49 25.55 25.74
30.48 27.33 15.97 12.97 4.91 20.26 25.67 29.48 30.42 30.98 30.95 35.48 35.00 37.21 38.17 38.64 35.16 35.10 37.00 35.99 35.04 35.65 36.12 35.59 33.84 32.00 30.90 29.70 28.84 27.57 28.76 29.51 29.11 28.80 28.44 27.48 26.43 25.64 24.54 24.07 24.15 24.78 24.71 24.73
30.62 28.71 19.27 8.12 5.97 9.75 24.44 31.98 33.94 34.19 25.97 34.01 35.88 36.03 35.20 33.79 29.29 30.25 33.96 32.30 33.29 33.89 32.76 30.92 29.50 28.39 27.65 27.43 25.79 25.68 27.07 26.90 27.37 28.06 28.16 27.07 26.10 25.57 24.70 24.66 23.83 24.49 24.98 24.71
25.16 26.06 22.16 19.72 8.58 18.79 28.47 30.22 32.81 22.78 25.94 31.13 32.20 33.03 30.83 30.47 32.05 32.06 29.40 29.47 30.71 30.92 29.40 28.73 26.13 25.15 24.96 24.85 24.63 24.70 24.93 25.14 26.67 26.07 25.73 24.84 24.36 24.59 24.90 24.20 24.42 24.21 23.97 24.29
20.35 19.59 17.07 22.28 10.51 13.35 29.57 29.11 29.10 31.76 30.63 30.59 30.34 30.47 30.15 29.77 29.57 29.21 28.60 28.22 27.18 25.49 25.67 25.29 23.57 23.17 23.18 23.78 23.08 22.85 22.57 24.43 23.54 23.14 22.90 22.61 22.07 23.40 24.03 24.40 24.09 24.01 24.48 23.90
22.83 25.37 21.57 25.57 23.96 30.35 29.62 29.86 30.63 30.83 30.31 29.05 28.85 29.24 28.91 28.21 27.95 27.63 27.26 25.54 24.74 23.37 22.50 22.34 20.93 20.63 21.40 21.32 21.03 20.51 21.86 21.08 20.55 19.50 19.01 18.87 19.28 21.71 22.41 21.69 22.09 22.82 23.17 22.83
24.68 27.77 26.08 27.28 28.73 29.17 32.59 32.16 29.01 29.68 28.74 28.31 27.73 27.10 27.20 27.35 26.53 24.70 23.28 23.20 21.78 21.52 20.16 19.25 17.73 17.77 17.96 18.64 18.87 18.39 17.86 17.56 15.73 16.23 17.22 17.93 17.86 19.16 19.34 22.42 22.81 22.04 22.35 22.20
23.33 25.04 23.17 23.53 26.57 28.04 28.77 28.61 27.32 27.25 26.84 25.54 24.32 23.76 24.76 23.40 22.36 20.63 20.83 20.45 19.76 18.65 17.64 16.39 15.64 15.32 14.71 14.67 13.94 13.23 13.58 13.23 14.25 15.48 15.68 16.38 18.21 17.40 18.42 20.08 20.78 21.57 22.59 23.64
23.54 24.28 21.98 23.09 26.34 26.82 27.05 27.37 26.96 25.78 25.43 22.62 21.71 21.55 21.66 20.97 20.45 19.27 18.03 17.56 16.24 14.81 14.06 12.61 11.43 10.71 10.07 9.10 9.00 8.70 7.95 10.14 11.75 13.47 15.55 15.94 17.02 17.97 18.53 18.43 19.74 25.08 26.11 25.96
MSLP
1017.32 1018.13 1018.08 1018.76 1018.93 1019.13 1019.32 1019.64 1019.60 1019.13 1018.84 1018.86 1018.97 1018.86 1017.85 1017.97 1018.22 1018.21 1018.04 1018.00 1017.79 1017.40 1016.55 1016.49 1016.44 1016.44 1016.58 1016.75 1016.92 1017.15 1017.43 1017.56 1017.89 1018.32 1018.57 1018.68 1018.47 1018.55 1018.56 1018.52 1018.48 1018.48 1018.49 1018.55
1018.15 1017.99 1018.30 1018.45 1018.85 1019.62 1019.93 1020.10 1020.14 1019.82 1019.49 1019.67 1019.54 1019.34 1018.50 1018.22 1017.99 1017.77 1017.71 1017.68 1017.39 1017.15 1016.37 1015.92 1016.10 1016.39 1016.60 1016.77 1016.94 1017.16 1017.27 1017.62 1017.85 1018.08 1018.22 1018.35 1018.31 1018.32 1018.32 1018.29 1018.24 1018.22 1018.22 1018.22
1018.03 1018.39 1018.65 1018.62 1019.50 1020.04 1020.39 1020.42 1020.59 1020.48 1020.28 1020.17 1020.24 1019.50 1018.74 1017.58 1017.53 1017.38 1017.10 1016.84 1016.72 1016.30 1015.92 1015.81 1016.15 1016.25 1016.49 1016.65 1016.72 1017.07 1017.35 1017.64 1017.89 1018.05 1018.20 1018.31 1018.38 1018.36 1018.23 1018.01 1017.97 1018.05 1018.02 1017.98
1018.44 1018.77 1019.00 1019.04 1019.80 1020.02 1020.49 1020.29 1020.59 1021.19 1021.40 1021.30 1021.26 1020.15 1019.10 1018.15 1017.60 1017.28 1016.59 1016.02 1016.11 1016.33 1016.31 1016.23 1016.22 1016.20 1016.25 1016.15 1016.69 1017.03 1017.30 1017.58 1017.87 1018.05 1018.21 1018.13 1018.18 1018.20 1018.01 1018.02 1018.04 1018.21 1018.26 1018.16
1019.38 1019.16 1019.07 1019.35 1019.66 1019.88 1020.09 1020.13 1020.66 1021.27 1021.70 1022.39 1022.45 1022.14 1019.27 1018.59 1018.07 1017.08 1016.08 1016.26 1016.36 1016.49 1016.49 1016.32 1016.29 1016.30 1016.11 1016.29 1016.57 1017.11 1017.44 1017.77 1018.14 1018.37 1018.42 1018.30 1018.09 1018.07 1018.07 1018.18 1018.12 1018.19 1018.23 1018.31
1019.27 1019.12 1019.16 1019.47 1019.33 1019.41 1019.93 1020.48 1021.37 1022.09 1022.78 1023.25 1022.46 1022.01 1019.68 1018.58 1017.53 1016.89 1016.34 1016.72 1016.80 1016.62 1016.49 1016.41 1016.41 1016.62 1016.69 1016.92 1017.10 1017.51 1017.79 1017.98 1018.15 1018.33 1018.41 1018.38 1018.23 1018.13 1018.03 1017.96 1017.95 1018.04 1018.18 1018.29
1019.56 1019.55 1019.40 1019.39 1019.34 1019.75 1020.04 1020.71 1022.19 1023.05 1023.40 1023.08 1022.63 1022.14 1019.06 1018.08 1016.96 1016.87 1016.82 1017.16 1016.95 1016.79 1016.59 1016.49 1016.71 1016.83 1017.07 1017.40 1017.67 1017.93 1018.09 1018.28 1018.41 1018.56 1018.55 1018.55 1018.57 1018.46 1018.20 1017.91 1017.97 1018.15 1018.28 1018.32
1019.31 1019.63 1019.25 1018.92 1018.87 1019.35 1019.97 1019.98 1020.95 1021.70 1022.94 1022.81 1022.63 1020.88 1018.42 1017.43 1016.44 1016.70 1016.89 1016.84 1017.16 1016.98 1016.89 1016.82 1016.97 1017.26 1017.51 1017.70 1017.81 1017.95 1018.06 1018.25 1018.44 1018.58 1018.66 1018.76 1018.84 1018.73 1018.43 1018.13 1018.00 1018.03 1018.05 1018.14
1019.18 1019.43 1019.22 1018.92 1018.60 1018.74 1019.68 1019.84 1020.22 1021.52 1023.26 1023.05 1022.11 1020.44 1018.44 1017.11 1016.37 1016.11 1016.46 1016.77 1016.82 1017.04 1017.03 1017.08 1017.08 1017.23 1017.57 1017.93 1017.94 1017.95 1018.04 1018.20 1018.48 1018.68 1018.77 1018.77 1018.78 1018.74 1018.55 1018.34 1018.22 1018.17 1018.20 1018.24
1018.73 1019.21 1019.18 1019.04 1018.93 1018.96 1018.90 1019.12 1020.66 1021.43 1022.72 1022.99 1021.31 1020.05 1018.12 1017.04 1016.33 1016.36 1016.40 1016.80 1016.71 1016.93 1017.08 1017.04 1017.09 1017.10 1017.36 1017.63 1017.79 1017.88 1017.96 1018.02 1018.11 1018.25 1018.41 1018.54 1018.64 1018.60 1018.51 1018.52 1018.42 1018.37 1018.38 1018.32
1018.54 1019.23 1019.90 1019.43 1019.12 1018.71 1019.04 1019.21 1019.79 1020.40 1021.56 1021.48 1020.83 1018.41 1016.65 1016.03 1016.03 1016.11 1016.30 1016.49 1016.74 1016.82 1016.91 1016.91 1017.05 1017.04 1017.14 1017.38 1017.39 1017.41 1017.63 1017.50 1017.52 1018.00 1018.24 1018.30 1018.20 1018.16 1018.19 1018.24 1018.28 1018.23 1018.39 1018.57
1018.40 1019.19 1019.70 1019.54 1019.16 1019.01 1018.78 1018.97 1019.39 1020.15 1021.32 1020.95 1019.96 1016.07 1015.19 1015.34 1015.49 1015.79 1016.01 1016.15 1016.47 1016.52 1016.40 1016.41 1016.74 1016.95 1016.83 1017.00 1017.00 1016.92 1017.19 1017.35 1017.22 1017.31 1017.64 1018.06 1018.16 1018.08 1018.03 1018.04 1018.02 1018.12 1018.32 1018.48
1018.83 1019.27 1019.94 1020.05 1020.19 1019.52 1019.14 1019.04 1019.01 1019.53 1019.93 1019.23 1019.65 1016.28 1015.41 1015.41 1015.67 1015.85 1016.15 1016.07 1016.65 1016.37 1015.99 1015.85 1016.18 1016.20 1016.31 1016.46 1016.71 1016.63 1016.61 1016.66 1016.74 1017.07 1017.38 1017.50 1017.62 1017.63 1017.45 1017.42 1017.46 1017.60 1017.85 1018.21
1019.57 1019.52 1019.60 1019.64 1019.42 1019.15 1019.10 1018.65 1018.56 1018.86 1019.05 1018.23 1017.47 1015.66 1015.46 1015.65 1015.65 1015.77 1015.92 1016.17 1016.25 1016.19 1016.06 1016.08 1016.06 1015.77 1015.78 1015.98 1016.13 1016.15 1016.16 1016.28 1016.43 1016.78 1016.96 1017.10 1017.08 1017.07 1017.02 1017.21 1017.38 1017.49 1017.60 1017.80
1020.56 1020.55 1020.62 1020.31 1020.08 1020.05 1019.55 1018.75 1018.22 1018.33 1017.61 1018.11 1016.57 1016.40 1014.25 1014.71 1015.07 1015.18 1015.38 1015.48 1015.74 1015.78 1015.76 1015.78 1015.74 1015.69 1015.61 1015.65 1015.74 1015.84 1015.90 1015.93 1015.95 1016.15 1016.33 1016.16 1016.08 1016.11 1016.36 1016.64 1016.85 1017.14 1017.43 1017.50
1020.75 1020.86 1021.27 1021.42 1020.87 1020.70 1020.00 1018.82 1018.83 1018.34 1017.92 1017.39 1016.54 1015.13 1013.12 1013.35 1014.45 1014.78 1015.18 1015.22 1015.36 1015.46 1015.60 1015.41 1015.50 1015.54 1015.70 1015.75 1015.72 1015.60 1015.44 1015.36 1015.49 1015.51 1015.38 1015.24 1015.45 1015.76 1015.91 1016.12 1016.35 1016.55 1016.75 1017.03
1021.31 1021.80 1022.53 1022.48 1021.54 1020.76 1019.57 1018.06 1017.45 1016.80 1016.65 1016.17 1015.54 1013.38 1012.95 1013.19 1013.82 1014.44 1014.63 1014.80 1015.11 1015.16 1015.18 1015.33 1015.55 1015.73 1015.79 1015.94 1015.99 1015.88 1015.56 1015.27 1015.18 1015.07 1014.71 1014.85 1015.09 1015.26 1015.43 1015.68 1016.05 1016.29 1016.52 1016.74
1021.55 1022.21 1022.93 1023.73 1023.06 1021.17 1017.78 1016.86 1016.58 1016.25 1015.26 1014.93 1014.27 1013.32 1013.05 1012.98 1013.54 1013.98 1014.22 1014.56 1014.99 1015.26 1015.34 1015.56 1015.77 1016.03 1016.34 1016.49 1016.37 1016.22 1015.90 1015.58 1015.28 1014.87 1014.56 1014.50 1014.61 1014.78 1014.96 1015.17 1015.32 1015.67 1015.97 1016.19
1021.76 1022.44 1023.45 1024.07 1023.17 1019.86 1017.30 1016.20 1015.75 1015.43 1014.14 1013.68 1014.01 1013.37 1013.12 1013.12 1013.69 1014.32 1014.28 1014.87 1015.31 1015.53 1015.76 1016.15 1016.52 1016.86 1016.87 1016.85 1016.68 1016.46 1016.07 1015.67 1015.44 1015.16 1014.78 1014.56 1014.46 1014.08 1014.09 1014.53 1014.88 1015.13 1015.42 1015.72
1021.97 1022.46 1023.27 1024.07 1023.01 1020.00 1016.12 1014.66 1014.22 1014.57 1014.04 1013.00 1012.80 1013.05 1013.30 1013.95 1014.49 1015.00 1015.14 1015.51 1015.73 1016.09 1016.61 1017.05 1017.36 1017.48 1017.37 1017.16 1016.96 1016.69 1016.22 1016.00 1015.49 1015.08 1014.68 1014.36 1014.26 1014.21 1014.10 1013.36 1013.37 1013.95 1014.73 1015.13
1021.96 1022.27 1022.26 1022.76 1022.17 1018.80 1015.14 1014.43 1014.21 1014.71 1013.86 1012.91 1013.04 1013.36 1013.85 1014.60 1014.82 1015.57 1015.92 1016.27 1016.65 1017.06 1017.42 1017.60 1017.80 1017.96 1017.87 1017.52 1017.21 1016.86 1016.48 1016.06 1015.56 1014.92 1014.40 1014.17 1014.03 1013.89 1013.88 1013.94 1013.85 1013.26 1012.67 1013.62
1021.06 1021.05 1021.07 1021.38 1020.99 1018.33 1014.86 1014.67 1013.43 1012.99 1013.25 1013.25 1013.65 1014.10 1014.49 1014.95 1015.40 1015.73 1016.24 1016.89 1017.41 1017.80 1017.98 1018.16 1018.25 1018.27 1018.17 1017.94 1017.68 1017.29 1016.86 1016.32 1015.80 1015.16 1014.63 1014.15 1013.84 1013.88 1013.83 1013.78 1013.66 1013.73 1014.03 1013.57
1020.33 1018.77 1018.66 1018.27 1017.08 1015.10 1014.58 1014.26 1013.58 1013.29 1013.81 1014.39 1014.68 1015.13 1015.49 1015.89 1016.21 1016.51 1016.84 1017.36 1017.87 1018.32 1018.56 1018.77 1018.95 1018.75 1018.63 1018.44 1018.26 1017.71 1017.01 1016.65 1016.00 1015.39 1014.94 1014.49 1014.24 1013.71 1013.37 1013.71 1013.70 1013.88 1013.59 1013.39
1019.17 1017.99 1017.66 1017.07 1015.52 1015.12 1014.75 1014.29 1014.24 1014.23 1014.59 1015.00 1015.39 1015.75 1016.16 1016.71 1017.09 1017.62 1017.93 1018.25 1018.65 1018.88 1019.11 1019.23 1019.19 1019.00 1018.84 1018.79 1018.67 1018.27 1017.71 1017.22 1016.48 1015.80 1015.25 1014.83 1014.59 1014.20 1014.10 1013.33 1013.36 1013.33 1013.46 1013.49
1018.28 1017.98 1017.13 1016.31 1015.64 1015.35 1015.14 1014.78 1014.90 1015.12 1015.50 1015.94 1016.43 1017.02 1017.36 1017.59 1018.00 1018.48 1018.80 1019.27 1019.57 1019.74 1019.80 1019.93 1019.96 1019.87 1019.66 1019.48 1019.20 1018.76 1018.18 1017.45 1016.67 1016.05 1015.57 1015.26 1014.93 1014.53 1014.18 1013.91 1013.35 1012.96 1012.80 1012.87
1017.32 1016.06 1016.42 1015.43 1015.04 1015.04 1015.11 1015.19 1015.49 1015.82 1016.31 1017.01 1017.57 1017.85 1018.07 1018.63 1019.05 1019.48 1019.81 1020.02 1020.26 1020.38 1020.38 1020.40 1020.36 1020.21 1019.99 1019.84 1019.46 1019.09 1018.59 1017.94 1017.29 1016.35 1015.42 1015.57 1014.89 1014.49 1014.27 1013.90 1013.37 1012.93 1012.53 1012.56
Wind_Speed
1 3 9 9 8 3 4 3 3 3 3 1 5 7 13 2 3 7 8 8 9 11 12 8 7 8 7 6 6 5 5 5 4 2 2 2 3 2 3 4 7 8 8 9
4 9 4 3 8 5 3 4 3 5 2 1 5 9 11 4 6 8 9 10 12 8 12 13 7 6 5 3 5 6 6 4 3 2 1 1 1 1 3 3 4 5 5 7
6 2 7 6 5 8 4 6 4 4 4 1 5 8 6 8 3 5 8 12 11 16 16 11 6 8 5 7 7 6 5 5 3 3 1 1 1 2 2 2 2 1 3 3
1 2 5 5 4 6 5 6 6 3 3 4 2 8 5 5 5 5 11 12 11 8 7 7 7 7 8 9 5 6 5 5 4 3 3 4 3 3 2 1 1 1 2 2
5 6 4 3 4 5 5 7 7 3 2 2 1 4 7 2 5 11 10 8 8 7 7 8 7 7 7 4 6 4 4 3 1 1 2 3 3 3 2 2 2 1 1 2
2 1 3 5 3 6 7 6 5 4 3 2 7 8 4 5 7 5 2 4 7 8 7 6 5 5 4 2 4 4 4 3 1 1 2 3 4 5 4 3 3 3 1 1
2 1 1 2 6 2 4 6 2 1 0 6 2 4 3 6 9 6 6 7 9 8 7 7 7 6 3 2 3 3 3 3 2 2 3 3 4 5 6 4 3 3 3 2
6 3 8 5 5 7 6 5 5 7 5 3 2 7 6 8 8 5 7 6 6 7 6 7 6 4 3 3 4 4 4 4 4 3 4 3 4 3 3 3 2 3 4 2
5 3 1 4 3 7 5 6 3 6 4 4 5 7 9 6 9 5 4 4 6 5 6 6 4 1 3 4 5 5 4 4 4 4 3 4 4 4 4 4 3 3 2 2
4 2 2 2 1 0 5 7 2 2 3 4 4 6 7 4 5 4 3 5 5 5 7 5 4 3 4 5 5 5 5 6 6 6 5 4 4 4 4 4 5 5 4 4
5 3 1 4 6 8 3 3 3 4 5 5 2 6 8 9 6 5 3 3 2 4 5 5 4 5 5 5 6 6 7 8 7 5 5 6 6 5 4 4 5 4 3 4
3 4 4 7 1 2 3 7 6 5 3 3 2 12 5 7 7 6 5 5 2 3 6 4 3 6 5 7 6 7 6 8 7 7 6 6 5 6 6 6 5 4 5 4
4 4 3 1 4 3 5 6 7 4 3 12 5 8 5 3 3 4 5 7 3 7 9 8 4 5 6 6 6 7 7 10 8 6 7 7 9 8 9 8 7 6 6 6
7 2 3 5 3 2 5 7 14 10 7 5 17 21 13 4 6 5 7 7 8 9 9 7 8 8 7 6 7 7 8 7 7 6 7 9 11 10 8 7 6 7 7 7
4 1 2 6 7 2 4 7 14 16 19 8 13 14 18 13 10 11 9 8 8 10 8 8 7 7 7 7 6 6 7 7 7 8 9 13 11 10 9 9 8 7 7 8
1 4 3 1 2 4 7 15 5 7 10 13 16 22 23 16 7 6 8 9 9 9 8 9 7 8 7 7 7 6 7 6 6 8 11 9 9 8 9 9 8 8 8 7
3 4 3 5 4 1 8 12 15 14 8 10 14 23 17 14 10 6 8 8 8 9 8 8 7 6 6 6 6 8 9 7 5 7 8 6 6 8 8 8 8 9 9 7
4 4 3 5 4 2 8 5 8 14 17 16 18 20 18 16 2 5 6 5 6 6 6 6 4 5 5 5 6 7 7 8 7 8 7 6 7 9 6 8 10 9 8 9
8 4 1 3 5 6 8 4 7 8 13 11 14 19 17 13 4 3 1 2 1 4 4 3 4 4 5 7 7 8 9 7 6 8 9 7 7 8 8 10 10 9 8 8
9 5 5 1 3 9 9 7 7 5 9 6 10 14 10 5 3 4 5 2 6 6 4 6 6 4 6 7 6 7 9 8 9 9 10 7 7 9 10 11 11 9 8 8
4 3 13 8 4 10 10 5 6 7 9 4 3 4 3 4 4 2 4 2 3 4 7 7 6 6 6 7 7 8 8 9 9 9 9 7 6 8 9 7 7 9 13 10
8 8 5 5 4 12 5 3 12 7 1 2 2 3 3 2 7 6 6 4 3 3 5 7 7 8 8 7 7 10 10 9 9 10 9 8 6 6 4 7 7 7 8 9
4 8 7 10 10 4 6 3 1 4 4 1 1 3 3 5 6 6 5 6 6 5 4 3 5 8 5 6 5 10 9 10 11 9 9 7 5 4 3 5 6 6 8 8
6 6 5 2 4 5 8 5 1 2 2 2 2 2 2 6 5 6 6 6 6 5 6 5 7 9 9 7 9 8 10 9 9 9 9 6 5 5 4 5 5 7 7 7
6 5 5 6 5 5 7 6 2 2 2 2 2 2 5 4 5 4 5 5 5 5 4 5 6 7 8 7 8 8 9 8 8 8 7 6 6 5 5 6 5 7 6 9
8 10 6 9 7 4 4 5 2 3 3 2 2 3 1 2 5 4 5 4 4 5 4 4 4 5 6 7 7 6 7 8 8 8 5 6 6 5 5 5 6 13 14 14
Wind_Direction
115 135 201 173 190 157 135 133 211 300 340 360 225 252 269 203 237 266 263 266 261 255 266 251 248 254 256 236 224 205 186 190 164 164 184 207 217 215 245 243 249 249 249 246
122 232 238 135 121 153 126 142 221 288 11 133 299 264 269 231 227 214 234 252 250 254 265 266 242 236 223 253 217 206 207 184 182 174 181 252 198 233 267 261 266 251 263 266
160 155 169 136 139 147 165 171 179 223 325 89 329 268 233 264 215 236 247 242 251 243 253 266 264 242 225 227 207 206 191 188 190 184 189 232 292 286 270 255 241 270 302 318
253 190 136 123 174 144 176 180 163 176 74 240 30 287 298 290 286 278 263 244 252 259 263 268 264 256 228 234 186 194 182 177 184 179 201 203 200 210 218 212 175 253 328 307
196 170 146 141 203 160 201 149 162 133 166 343 296 285 272 316 278 249 265 291 301 297 279 277 276 264 265 207 190 173 156 144 128 259 256 233 237 244 247 221 218 231 296 350
118 88 151 192 151 162 140 91 61 65 114 281 203 190 226 190 220 295 266 356 328 324 318 309 309 335 330 35 125 142 157 167 171 230 266 255 247 236 218 218 226 224 220 287
86 248 118 148 92 58 175 141 101 56 185 227 304 222 272 269 251 234 298 317 316 311 320 322 329 330 336 141 143 155 165 215 231 260 261 267 265 260 251 239 227 223 225 219
164 292 174 185 175 169 191 178 179 193 199 271 45 242 252 221 271 281 286 283 283 323 334 332 335 332 291 199 186 199 204 226 221 239 263 279 290 277 269 265 240 233 229 216
133 269 198 189 183 150 187 208 157 89 22 57 221 278 285 268 283 319 333 341 324 328 342 338 333 274 233 232 232 220 226 247 250 247 251 250 252 255 256 258 260 255 247 223
186 88 190 200 209 84 173 162 124 22 165 233 252 264 233 239 227 332 6 305 340 340 347 335 303 264 231 230 237 225 225 232 238 231 225 234 240 245 252 256 250 243 241 225
139 118 251 130 201 178 143 185 197 140 156 188 277 248 211 213 210 203 243 249 254 316 313 303 274 256 243 236 225 229 231 229 229 219 229 232 233 233 235 235 240 234 243 242
181 143 185 200 199 335 250 194 180 143 255 231 174 257 182 197 189 201 222 275 353 267 255 270 286 261 254 253 245 241 241 242 228 221 220 230 238 223 225 230 230 223 232 224
156 199 176 140 358 326 216 200 201 124 96 221 135 261 357 144 266 259 241 262 272 278 301 308 279 272 271 270 259 249 240 243 239 211 215 223 232 223 223 221 218 210 210 217
17 195 204 202 178 106 193 203 203 190 203 206 227 262 263 272 266 275 256 266 257 256 264 283 298 294 284 262 258 258 261 244 251 220 225 236 237 231 227 224 220 215 207 208
134 192 219 250 283 323 336 248 213 211 231 201 250 250 259 250 231 251 242 250 265 270 285 286 282 295 304 309 298 268 253 251 233 229 225 234 231 216 209 211 212 210 213 217
275 189 147 337 234 238 248 262 285 263 251 245 258 261 267 272 270 231 254 259 254 263 270 282 291 300 314 316 311 313 296 274 213 226 236 237 224 225 225 227 216 205 209 207
157 131 82 240 209 272 292 226 221 236 206 211 230 244 272 284 264 236 235 242 262 271 283 293 301 305 321 330 334 319 317 314 270 258 254 238 222 227 225 213 202 211 210 193
164 133 111 233 19 225 230 165 208 223 244 229 246 261 265 266 288 185 229 220 257 280 292 302 317 342 341 326 315 315 312 310 292 273 264 236 217 230 213 201 210 211 196 201
204 139 254 177 201 294 303 216 180 174 256 225 228 251 261 275 343 307 179 121 314 294 306 330 4 334 323 325 324 321 317 314 303 294 282 264 235 226 201 211 216 209 197 200
185 185 140 46 165 224 225 204 174 130 282 218 192 232 246 107 297 195 134 18 325 353 14 352 341 324 330 330 324 321 316 318 309 303 291 271 239 235 235 214 196 190 198 208
137 174 217 220 268 284 243 156 141 125 243 196 191 249 170 191 211 134 347 50 22 8 358 348 346 331 319 324 327 319 317 309 305 302 290 275 245 237 238 235 224 206 182 177
172 170 191 175 177 263 162 8 163 194 115 126 93 74 2 307 318 322 342 41 61 10 345 346 339 334 329 327 332 322 311 307 309 305 296 283 257 242 241 224 216 216 231 229
239 195 187 181 208 264 226 306 46 83 115 80 40 340 337 293 290 311 307 339 349 357 343 331 327 315 317 323 318 310 311 316 313 310 299 292 282 255 207 214 226 229 217 206
237 196 225 92 205 241 281 303 282 99 115 149 173 255 283 261 294 303 316 323 334 345 340 342 331 330 328 335 328 308 315 321 318 313 308 301 286 279 260 230 220 217 218 224
205 132 201 255 264 243 227 231 215 168 169 197 94 270 271 305 300 309 313 318 314 320 331 331 323 321 316 325 317 321 328 330 327 319 309 300 290 278 266 254 235 227 230 219
184 214 193 240 203 181 204 196 188 349 356 71 275 293 31 343 297 305 287 295 306 312 311 308 298 304 315 317 315 320 332 335 324 321 322 300 288 273 265 256 259 255 242 233